Terminal Aerodrome Forecast
Issued by NWS Sterling, VA

Home | Current Version | Previous Version | Text Only | Print | Product List | Glossary On
Versions: 1 2 3 4 5 6 7 8 9 10 11 12 13 14 15 16 17 18 19 20 21 22 23
000
FTUS41 KLWX 232328
TAFIAD
TAF
KIAD 232328Z 2400/2506 18006KT P6SM SCT080
     FM240200 19005KT P6SM BKN080
     FM240500 19005KT P6SM SCT080
     FM240900 18005KT 3SM BR SCT110
     FM241300 18007KT P6SM SCT150
     FM241900 18011KT P6SM SCT150
     FM250000 16008KT P6SM SCT050
     FM250200 16008KT P6SM BKN050=

USA.gov is the U.S. government's official web portal to all federal, state and local government web resources and services.